Tracking 28790 objects as of 19-Apr-2024
HD Live streaming from Space Station
objects crossing your sky now

TITAN 3C TRANSTAGE R/B

Track TITAN 3C TRANSTAGE R/B now!


NORAD ID: 11623
Int'l Code: 1979-098C
Perigee: 35,946.8 km
Apogee: 38,537.1 km
Inclination: 11.9 °
Period: 1,510.7 minutes
Semi major axis: 43612 km
RCS: 2.567 m2 (large)
Launch date: November 21, 1979
Source: United States (US)
Launch site: AIR FORCE EASTERN TEST RANGE (AFETR)

Note: This is a ROCKET BODY
Your satellite tracking list
Your tracking list is empty




NASA's NSSDC Master Catalog

Two Line Element Set (TLE):
1 11623U 79098C   24109.80327142 -.00000203  00000-0  00000-0 0  9995
2 11623  11.9278 312.0088 0296963  56.7593 143.6827  0.95319078115061
Source of the keplerian elements: AFSPC